This is the latest recevied weather packets stored in our database for station/object RW6A-13. If no packets are shown the sender has not sent any weather packets the latest 1 day(s).
| Time | Temp. | Humidity | Pressure | Rain* | Wind** | Luminosity | Snow |
|---|---|---|---|---|---|---|---|
| 1778071492 | 21.67° C | 49% | 1009.7 hPa | 0 mm | - | - | - |
| 1778070892 | 22.22° C | 48% | 1009.7 hPa | 0 mm | - | - | - |
| 1778069992 | 22.78° C | 49% | 1009.8 hPa | 0 mm | - | - | - |
| 1778069092 | 21.67° C | 50% | 1009.8 hPa | 0 mm | - | - | - |
| 1778068492 | 22.22° C | 47% | 1009.8 hPa | 0 mm | - | - | - |
| 1778068192 | 22.78° C | 46% | 1009.8 hPa | 0 mm | - | - | - |
| 1778067592 | 22.78° C | 45% | 1009.8 hPa | 0 mm | - | - | - |
| 1778067292 | 22.78° C | 46% | 1009.8 hPa | 0 mm | - | - | - |
| 1778066692 | 23.33° C | 47% | 1009.9 hPa | 0 mm | - | - | - |
| 1778065792 | 24.44° C | 43% | 1009.8 hPa | 0 mm | - | - | - |
| 1778064890 | 24.44° C | 45% | 1009.9 hPa | 0 mm | - | - | - |
| 1778064047 | 23.33° C | 46% | 1009.9 hPa | 0 mm | - | - | - |
| 1778063147 | 23.33° C | 45% | 1010 hPa | 0 mm | - | - | - |
| 1778062547 | 23.89° C | 46% | 1010 hPa | 0 mm | - | - | - |
| 1778062247 | 23.33° C | 47% | 1010 hPa | 0 mm | - | - | - |
| 1778061946 | 23.89° C | 44% | 1010 hPa | 0 mm | - | - | - |
| 1778061647 | 23.89° C | 45% | 1010 hPa | 0 mm | - | - | - |
| 1778061347 | 23.33° C | 46% | 1010.1 hPa | 0 mm | - | - | - |
| 1778060747 | 23.33° C | 45% | 1010 hPa | 0 mm | - | - | - |
| 1778060446 | 22.78° C | 47% | 1010 hPa | 0 mm | - | - | - |
| 1778059847 | 24.44° C | 45% | 1010 hPa | 0 mm | - | - | - |
| 1778059546 | 23.89° C | 46% | 1010.1 hPa | 0 mm | - | - | - |
| 1778058946 | 24.44° C | 43% | 1010 hPa | 0 mm | - | - | - |
| 1778058646 | 23.89° C | 43% | 1010 hPa | 0 mm | - | - | - |
| 1778058346 | 23.89° C | 43% | 1010 hPa | 0 mm | - | - | - |
* Rain latest hour (hover to see other rain measurements)
** Current wind speed in m/s (hover to see current wind gust speed)